(299387) = 2005 WH28

Discovered at Kitt Peak on 2005-11-21 by Spacewatch.

Orbit

Orbit type: Main Belt

Note: WebGL enabled browser required.

epoch2023-02-25.0
epoch JD2460000.5
perihelion date2020-07-07.68154
perihelion JD2459038.18154
argument of perihelion (°)340.15312
ascending node (°)260.89908
inclination (°)6.38656
eccentricity0.0936958
perihelion distance (AU)1.9943573
Tisserand w.r.t. Jupiter3.7
ΔV w.r.t. Earth (km/sec)8.9
semimajor axis (AU)2.2005384
mean anomaly (°)290.55558
mean daily motion (°/day)0.30193290
aphelion distance (AU)2.407
period (years)3.26
P-vector [x]-0.48193216
P-vector [y]-0.78813634
P-vector [z]-0.38286096
Q-vector [x]0.86929715
Q-vector [y]-0.48484472
Q-vector [z]-0.09616679
absolute magnitude17.76
phase slope0.15
uncertainty0
referenceMPO 745323
observations used200
oppositions11
arc length (days)6391
first opposition used2005
last opposition used2023
residual rms (arc-secs)0.70
perturbers coarse indicatorM-v
perturbers precise indicator003Ek
first observation date used2005-11-21.0
last observation date used2023-05-22.0
computer nameMPCLINUX
JD of orbit computation2456909.259101
perihelion JD uncertainty (days)1.5330E-04
argument of perihelion uncertainty (°)5.9801E-05
ascending node uncertainty (°)3.6976E-05
inclination uncertainty (°)4.1215E-06
eccentricity uncertainty 3.5516E-08
perihelion distance uncertainty (AU)7.5819E-08
Minimum Orbit Intersection Distances (in AU)
for orbit epoch: 2460000.5, reference: E2023-KB5
Mercury1.53027
Venus1.27049
Earth0.98246
Mars0.452
Jupiter2.60195
Saturn6.6738
Uranus16.2957
Neptune27.4879

Observations

202 total observations over interval: 2005 11 21.25304 – 2023 05 22.181223
These data are available for download (format description).

Date (UT) J2000 RA J2000 Dec Magn Location Ref
2005 11 21.25304 04 42 55.39 +24 53 33.2 21.0 V 691 – Steward Observatory, Kitt Peak-Spacewatch MPS 152384
2005 11 21.27050 04 42 54.19 +24 53 28.8 20.8 V 691 – Steward Observatory, Kitt Peak-Spacewatch MPS 152384
2005 11 21.28782 04 42 52.99 +24 53 24.3 20.9 V 691 – Steward Observatory, Kitt Peak-Spacewatch MPS 152384
2005 11 25.24907 04 38 22.48 +24 35 02.9   691 – Steward Observatory, Kitt Peak-Spacewatch MPS 152384
2005 11 25.26647 04 38 21.21 +24 34 57.9   691 – Steward Observatory, Kitt Peak-Spacewatch MPS 152384
2005 11 25.28385 04 38 19.96 +24 34 52.9   691 – Steward Observatory, Kitt Peak-Spacewatch MPS 152384
2005 12 21.09946 04 09 58.68 +22 15 11.5 20.9 V 691 – Steward Observatory, Kitt Peak-Spacewatch MPS 244731
2005 12 21.11477 04 09 57.83 +22 15 07.1 21.5 V 691 – Steward Observatory, Kitt Peak-Spacewatch MPS 244731
2005 12 21.13007 04 09 56.96 +22 15 02.4 21.5 V 691 – Steward Observatory, Kitt Peak-Spacewatch MPS 244731
2005 12 23.08914 04 08 17.04 +22 04 41.4 21.4 V 691 – Steward Observatory, Kitt Peak-Spacewatch MPS 156633
2005 12 23.11227 04 08 15.85 +22 04 35.3 21.6 V 691 – Steward Observatory, Kitt Peak-Spacewatch MPS 156633
2005 12 23.15099 04 08 13.91 +22 04 23.3 21.1 V 691 – Steward Observatory, Kitt Peak-Spacewatch MPS 156633
2005 12 28.17421 04 04 28.74 +21 39 13.8 20.9 V G96 – Mt. Lemmon Survey MPS 156633
2005 12 28.18083 04 04 28.45 +21 39 11.9 21.3 V G96 – Mt. Lemmon Survey MPS 156633
2005 12 28.19299 04 04 27.94 +21 39 08.5 21.3 V G96 – Mt. Lemmon Survey MPS 156633
2005 12 28.19986 04 04 27.66 +21 39 06.4 20.7 V G96 – Mt. Lemmon Survey MPS 156633
2008 10 10.36281 02 29 02.90 +23 07 57.9 20.9 V G96 – Mt. Lemmon Survey MPS 263234
2008 10 10.36871 02 29 02.58 +23 07 55.8 20.4 V G96 – Mt. Lemmon Survey MPS 263234
2008 10 10.37462 02 29 02.25 +23 07 54.6 20.7 V G96 – Mt. Lemmon Survey MPS 263234
2008 10 10.38051 02 29 01.93 +23 07 53.1 20.7 V G96 – Mt. Lemmon Survey MPS 263234
2008 10 30.37815 02 08 52.29 +21 04 11.9 20.3 V G96 – Mt. Lemmon Survey MPS 263234
2008 10 30.38590 02 08 51.72 +21 04 08.1 19.9 V G96 – Mt. Lemmon Survey MPS 263234
2008 10 30.39362 02 08 51.25 +21 04 04.9 20.5 V G96 – Mt. Lemmon Survey MPS 263234
2008 10 30.40143 02 08 50.71 +21 04 00.6 20.6 V G96 – Mt. Lemmon Survey MPS 263234
2010 03 09.93260 11 23 59.31 -09 08 46.1 19.8 V J75 – OAM Observatory, La Sagra MPS 316735
2010 03 09.94690 11 23 58.42 -09 08 39.5 19.8 V J75 – OAM Observatory, La Sagra MPS 316735
2010 03 09.96119 11 23 57.57 -09 08 36.3 20.1 V J75 – OAM Observatory, La Sagra MPS 316735
2010 03 12.423490 11 21 30.193 -08 55 11.15 19.95 i F51 – Pan-STARRS 1, Haleakala MPS 337344
2010 03 12.432209 11 21 29.655 -08 55 08.34 19.97 i F51 – Pan-STARRS 1, Haleakala MPS 337344
2011 09 19.36559 23 55 47.066 +11 42 36.10 20.4 r F51 – Pan-STARRS 1, Haleakala MPS 391116
2011 09 19.37620 23 55 46.417 +11 42 32.07 20.4 r F51 – Pan-STARRS 1, Haleakala MPS 391116
2011 09 19.39017 23 55 45.567 +11 42 26.82 20.4 i F51 – Pan-STARRS 1, Haleakala MPS 391116
2011 09 19.40179 23 55 44.835 +11 42 22.26 20.2 i F51 – Pan-STARRS 1, Haleakala MPS 391116
2011 10 06.19381 23 39 59.58 +09 36 14.4 20.1 V G96 – Mt. Lemmon Survey MPS 394222
2011 10 06.20079 23 39 59.18 +09 36 10.2 20.6 V G96 – Mt. Lemmon Survey MPS 394222
2011 10 06.20773 23 39 58.86 +09 36 07.8 20.0 V G96 – Mt. Lemmon Survey MPS 394222
2011 10 06.21462 23 39 58.50 +09 36 03.9 21.2 V G96 – Mt. Lemmon Survey MPS 394222
2011 11 02.10609 23 26 45.34 +06 22 57.1 21.1 V G96 – Mt. Lemmon Survey MPS 399916
2011 11 02.11295 23 26 45.31 +06 22 54.8 20.9 V G96 – Mt. Lemmon Survey MPS 399916
2011 11 02.11986 23 26 45.24 +06 22 52.7 21.0 V G96 – Mt. Lemmon Survey MPS 399916
2011 11 02.12681 23 26 45.16 +06 22 50.7 21.3 V G96 – Mt. Lemmon Survey MPS 399916
2013 01 04.93185 09 09 12.30 +08 57 03.8 20.5 R G36 – Calar Alto-CASADO MPS 450833
2013 01 05.14379 09 09 03.26 +08 56 45.0 20.6 R G36 – Calar Alto-CASADO MPS 450833
2013 01 05.25854 09 08 58.33 +08 56 34.4 20.9 R G36 – Calar Alto-CASADO MPS 450833
2013 01 10.52559 09 04 56.712 +08 50 57.53 20.8 w F51 – Pan-STARRS 1, Haleakala MPS 450833
2013 01 10.53939 09 04 55.985 +08 50 56.96 20.7 w F51 – Pan-STARRS 1, Haleakala MPS 450833
2013 01 10.55325 09 04 55.250 +08 50 56.46 20.7 w F51 – Pan-STARRS 1, Haleakala MPS 450833
2013 01 10.56716 09 04 54.513 +08 50 55.89 20.6 w F51 – Pan-STARRS 1, Haleakala MPS 450833
2013 02 03.33745 08 40 03.277 +09 15 32.80 20.5 w F51 – Pan-STARRS 1, Haleakala MPS 456146
2013 02 03.36672 08 40 01.229 +09 15 37.16 20.4 w F51 – Pan-STARRS 1, Haleakala MPS 456146
2013 02 03.38143 08 40 00.206 +09 15 39.42 20.4 w F51 – Pan-STARRS 1, Haleakala MPS 456146
2014 07 01.55992 21 50 10.679 -05 09 33.30 20.7 w F51 – Pan-STARRS 1, Haleakala MPS 522104
2014 07 01.57204 21 50 10.518 -05 09 29.75 20.8 w F51 – Pan-STARRS 1, Haleakala MPS 522104
2014 07 01.58417 21 50 10.363 -05 09 26.31 20.7 w F51 – Pan-STARRS 1, Haleakala MPS 522104
2014 07 01.59630 21 50 10.210 -05 09 22.94 20.6 w F51 – Pan-STARRS 1, Haleakala MPS 522104
2014 08 20.37206 21 11 52.781 -05 09 05.68 19.9 w F51 – Pan-STARRS 1, Haleakala MPS 527887
2014 08 20.38480 21 11 52.013 -05 09 08.72 19.9 w F51 – Pan-STARRS 1, Haleakala MPS 527887
2014 08 20.39759 21 11 51.247 -05 09 11.72 19.9 w F51 – Pan-STARRS 1, Haleakala MPS 527887
2014 08 20.41037 21 11 50.473 -05 09 14.66 19.9 w F51 – Pan-STARRS 1, Haleakala MPS 527887
2014 08 21.34864 21 10 57.291 -05 12 55.86 20.1 w F51 – Pan-STARRS 1, Haleakala MPS 527887
2014 08 21.36150 21 10 56.531 -05 12 58.95 20.0 w F51 – Pan-STARRS 1, Haleakala MPS 527887
2014 08 21.37438 21 10 55.767 -05 13 02.00 20.0 w F51 – Pan-STARRS 1, Haleakala MPS 527887
2014 08 21.38727 21 10 55.000 -05 13 05.06 20.1 w F51 – Pan-STARRS 1, Haleakala MPS 527887
2016 01 04.46277 06 12 42.959 +20 20 55.86 20.6 w F51 – Pan-STARRS 1, Haleakala MPS 667876
2016 01 04.47371 06 12 42.167 +20 20 54.34 20.7 w F51 – Pan-STARRS 1, Haleakala MPS 667876
2016 01 04.48463 06 12 41.381 +20 20 52.87 20.8 w F51 – Pan-STARRS 1, Haleakala MPS 667876
2016 01 07.48222 06 09 15.510 +20 14 17.67 20.9 w F51 – Pan-STARRS 1, Haleakala MPS 667876
2016 01 07.49478 06 09 14.636 +20 14 16.02 21.0 w F51 – Pan-STARRS 1, Haleakala MPS 667876
2016 01 07.50735 06 09 13.754 +20 14 14.10 21.1 w F51 – Pan-STARRS 1, Haleakala MPS 667876
2016 01 07.52001 06 09 12.881 +20 14 12.31 21.2 w F51 – Pan-STARRS 1, Haleakala MPS 667876
2018 11 17.32992 04 08 30.24 +24 47 12.0 20.9 G G96 – Mt. Lemmon Survey MPS 951643
2018 11 17.33551 04 08 29.91 +24 47 10.0 21.5 G G96 – Mt. Lemmon Survey MPS 951643
2018 11 17.34112 04 08 29.51 +24 47 08.1 21.1 G G96 – Mt. Lemmon Survey MPS 951643
2018 11 17.34671 04 08 29.12 +24 47 06.3 21.1 G G96 – Mt. Lemmon Survey MPS 951643
2018 11 29.24190 03 54 47.93 +23 37 39.5 21.1 G G96 – Mt. Lemmon Survey MPS 965097
2018 11 29.24744 03 54 47.53 +23 37 37.5 20.9 G G96 – Mt. Lemmon Survey MPS 965097
2018 11 29.25299 03 54 47.16 +23 37 35.2 21.0 G G96 – Mt. Lemmon Survey MPS 965097
2018 11 29.25854 03 54 46.76 +23 37 33.2 20.4 G G96 – Mt. Lemmon Survey MPS 965097
2018 12 13.44485 03 40 12.032 +22 07 45.21 21.0 w F51 – Pan-STARRS 1, Haleakala MPS 965097
2018 12 13.45749 03 40 11.341 +22 07 40.36 21.0 w F51 – Pan-STARRS 1, Haleakala MPS 965097
2018 12 13.47011 03 40 10.646 +22 07 35.76 20.9 w F51 – Pan-STARRS 1, Haleakala MPS 965097
2018 12 13.48275 03 40 09.966 +22 07 30.96 21.0 w F51 – Pan-STARRS 1, Haleakala MPS 965097
2019 01 07.37325 03 27 55.526 +20 06 16.03 21.6 w F51 – Pan-STARRS 1, Haleakala MPS 965097
2019 01 07.38683 03 27 55.430 +20 06 13.20 21.5 w F51 – Pan-STARRS 1, Haleakala MPS 965097
2019 01 07.40043 03 27 55.335 +20 06 10.35 21.7 w F51 – Pan-STARRS 1, Haleakala MPS 965097
2020 02 20.44859 14 10 49.50 -22 08 01.8 20.9 G G96 – Mt. Lemmon Survey MPS 1162647
2020 02 20.45380 14 10 49.65 -22 08 03.2 21.2 G G96 – Mt. Lemmon Survey MPS 1162647
2020 02 20.45901 14 10 49.90 -22 08 05.4 20.4 G G96 – Mt. Lemmon Survey MPS 1162647
2020 02 20.46424 14 10 50.13 -22 08 07.2 21.8 G G96 – Mt. Lemmon Survey MPS 1162647
2020 03 22.52744 14 17 34.209 -23 55 02.02 20.4 w F51 – Pan-STARRS 1, Haleakala MPS 1170904
2020 03 22.53905 14 17 33.958 -23 55 02.45 20.5 w F51 – Pan-STARRS 1, Haleakala MPS 1170904
